QPF
0.04 0.05 0.04 0.04 0.04 0.04 0.03 0.03 0.02 0.02 0.02 0.03 0.02 0.02 0.03 0.02 0.02 0.02 0.02 0.02 0.02 0.02 0.01 0.01 0.01 0.01 0.02 0.02 0.02 0.03 0.04 0.05 0.05 0.05 0.05 0.06 0.06 0.06 0.05 0.04 0.03 0.03 0.04
0.04 0.04 0.03 0.04 0.05 0.04 0.03 0.03 0.02 0.03 0.03 0.03 0.02 0.02 0.03 0.02 0.03 0.03 0.02 0.02 0.02 0.02 0.01 0.01 0.01 0.01 0.01 0.02 0.02 0.02 0.03 0.03 0.04 0.05 0.05 0.05 0.05 0.05 0.05 0.05 0.03 0.03 0.04
0.04 0.03 0.02 0.03 0.04 0.03 0.04 0.03 0.02 0.02 0.03 0.02 0.02 0.02 0.02 0.03 0.03 0.03 0.03 0.03 0.03 0.02 0.02 0.02 0.01 0.01 0.02 0.02 0.02 0.02 0.03 0.03 0.04 0.04 0.03 0.03 0.03 0.04 0.04 0.04 0.04 0.04 0.05
0.02 0.02 0.03 0.03 0.03 0.03 0.03 0.03 0.03 0.02 0.03 0.03 0.02 0.02 0.02 0.02 0.03 0.03 0.03 0.03 0.02 0.02 0.02 0.02 0.02 0.02 0.02 0.02 0.02 0.03 0.03 0.03 0.04 0.04 0.03 0.04 0.03 0.03 0.04 0.04 0.04 0.05 0.05
0.01 0.01 0.02 0.02 0.02 0.02 0.02 0.02 0.02 0.02 0.02 0.02 0.02 0.02 0.02 0.02 0.02 0.02 0.02 0.02 0.03 0.03 0.03 0.03 0.02 0.02 0.02 0.03 0.03 0.03 0.03 0.03 0.03 0.03 0.03 0.04 0.04 0.05 0.04 0.03 0.03 0.03 0.03
0.00 0.01 0.01 0.01 0.01 0.01 0.01 0.01 0.02 0.02 0.03 0.03 0.03 0.03 0.02 0.02 0.02 0.02 0.01 0.02 0.02 0.03 0.04 0.04 0.02 0.01 0.02 0.02 0.03 0.03 0.03 0.03 0.03 0.04 0.03 0.04 0.04 0.04 0.04 0.04 0.04 0.04 0.03
0.01 0.01 0.00 0.00 0.00 0.01 0.01 0.02 0.02 0.03 0.04 0.05 0.06 0.06 0.07 0.06 0.04 0.03 0.02 0.02 0.02 0.02 0.03 0.02 0.01 0.01 0.02 0.02 0.03 0.03 0.03 0.03 0.03 0.04 0.04 0.03 0.03 0.04 0.05 0.05 0.05 0.04 0.03
0.02 0.01 0.01 0.00 0.00 0.00 0.01 0.01 0.02 0.03 0.02 0.02 0.03 0.03 0.04 0.04 0.03 0.03 0.03 0.02 0.02 0.02 0.02 0.02 0.02 0.02 0.02 0.02 0.02 0.02 0.03 0.03 0.03 0.03 0.02 0.02 0.03 0.03 0.04 0.04 0.04 0.03 0.03
0.02 0.02 0.01 0.01 0.00 0.01 0.01 0.01 0.02 0.02 0.02 0.02 0.02 0.02 0.03 0.02 0.02 0.01 0.01 0.01 0.01 0.01 0.01 0.01 0.01 0.01 0.01 0.01 0.01 0.02 0.02 0.03 0.02 0.02 0.03 0.03 0.03 0.03 0.03 0.03 0.03 0.03 0.03
0.02 0.02 0.01 0.01 0.01 0.02 0.02 0.02 0.02 0.01 0.02 0.02 0.02 0.02 0.02 0.03 0.02 0.01 0.01 0.01 0.01 0.01 0.01 0.01 0.01 0.01 0.01 0.01 0.01 0.02 0.02 0.02 0.02 0.03 0.04 0.04 0.03 0.02 0.03 0.02 0.02 0.02 0.02
0.01 0.01 0.01 0.02 0.02 0.03 0.03 0.02 0.02 0.02 0.02 0.02 0.03 0.03 0.03 0.04 0.03 0.02 0.01 0.01 0.01 0.01 0.01 0.01 0.01 0.01 0.00 0.00 0.01 0.01 0.02 0.03 0.03 0.03 0.04 0.04 0.04 0.03 0.03 0.02 0.02 0.02 0.03
0.01 0.01 0.02 0.02 0.03 0.03 0.03 0.02 0.02 0.02 0.02 0.02 0.02 0.03 0.03 0.05 0.04 0.02 0.01 0.01 0.01 0.01 0.01 0.01 0.01 0.01 0.01 0.01 0.01 0.01 0.01 0.02 0.03 0.03 0.04 0.03 0.03 0.03 0.03 0.02 0.02 0.03 0.04
0.01 0.02 0.02 0.03 0.03 0.03 0.03 0.02 0.02 0.02 0.02 0.02 0.03 0.04 0.04 0.04 0.03 0.01 0.01 0.01 0.01 0.01 0.01 0.01 0.01 0.02 0.01 0.01 0.01 0.01 0.01 0.02 0.02 0.02 0.02 0.02 0.03 0.03 0.03 0.03 0.03 0.03 0.03
0.03 0.03 0.04 0.04 0.04 0.04 0.03 0.03 0.03 0.03 0.03 0.03 0.04 0.04 0.04 0.02 0.01 0.01 0.01 0.01 0.01 0.01 0.01 0.01 0.01 0.01 0.01 0.01 0.01 0.02 0.02 0.02 0.02 0.02 0.02 0.02 0.02 0.03 0.03 0.04 0.03 0.03 0.03
0.03 0.03 0.02 0.02 0.01 0.01 0.01 0.02 0.02 0.02 0.03 0.04 0.04 0.05 0.05 0.02 0.01 0.01 0.01 0.01 0.01 0.01 0.01 0.01 0.01 0.02 0.02 0.02 0.02 0.02 0.02 0.03 0.03 0.02 0.03 0.03 0.03 0.04 0.04 0.04 0.04 0.03 0.03
0.01 0.01 0.01 0.01 0.01 0.00 0.00 0.00 0.00 0.00 0.01 0.02 0.03 0.04 0.03 0.02 0.02 0.01 0.01 0.01 0.01 0.01 0.01 0.02 0.02 0.02 0.02 0.02 0.02 0.03 0.03 0.03 0.03 0.03 0.03 0.03 0.04 0.04 0.04 0.03 0.03 0.03 0.02
0.02 0.01 0.01 0.01 0.01 0.01 0.00 0.00 0.00 0.01 0.01 0.02 0.03 0.03 0.03 0.02 0.01 0.01 0.01 0.01 0.01 0.01 0.02 0.02 0.03 0.03 0.03 0.03 0.03 0.03 0.03 0.03 0.03 0.03 0.04 0.04 0.04 0.04 0.04 0.03 0.03 0.02 0.02
0.03 0.02 0.02 0.01 0.01 0.01 0.01 0.01 0.01 0.01 0.02 0.03 0.03 0.02 0.03 0.02 0.01 0.01 0.01 0.01 0.01 0.01 0.01 0.02 0.03 0.03 0.04 0.04 0.04 0.04 0.04 0.05 0.05 0.04 0.05 0.07 0.07 0.06 0.06 0.05 0.04 0.03 0.02
0.03 0.02 0.02 0.01 0.01 0.01 0.01 0.02 0.02 0.02 0.03 0.04 0.03 0.03 0.04 0.04 0.02 0.02 0.02 0.01 0.02 0.02 0.02 0.02 0.03 0.04 0.05 0.06 0.05 0.04 0.04 0.05 0.04 0.04 0.04 0.04 0.04 0.05 0.05 0.04 0.03 0.03 0.03
0.02 0.02 0.02 0.01 0.01 0.01 0.01 0.02 0.03 0.03 0.04 0.05 0.04 0.04 0.05 0.05 0.03 0.03 0.03 0.02 0.02 0.03 0.03 0.03 0.03 0.04 0.06 0.07 0.06 0.05 0.04 0.04 0.03 0.03 0.03 0.03 0.03 0.02 0.02 0.03 0.02 0.02 0.03
0.02 0.02 0.03 0.02 0.01 0.02 0.03 0.04 0.05 0.05 0.06 0.07 0.07 0.07 0.07 0.07 0.06 0.06 0.05 0.04 0.04 0.04 0.05 0.05 0.05 0.06 0.06 0.07 0.07 0.06 0.04 0.03 0.02 0.02 0.01 0.02 0.02 0.01 0.01 0.02 0.02 0.02 0.03
0.02 0.03 0.03 0.03 0.03 0.03 0.04 0.05 0.06 0.07 0.08 0.08 0.07 0.08 0.09 0.10 0.10 0.09 0.08 0.07 0.07 0.06 0.07 0.08 0.06 0.06 0.05 0.06 0.05 0.03 0.03 0.02 0.01 0.01 0.02 0.02 0.01 0.01 0.02 0.02 0.02 0.03 0.02
0.02 0.02 0.02 0.03 0.04 0.04 0.04 0.05 0.06 0.07 0.07 0.08 0.08 0.08 0.08 0.09 0.11 0.10 0.08 0.07 0.07 0.07 0.07 0.05 0.04 0.03 0.03 0.03 0.03 0.02 0.02 0.02 0.02 0.02 0.03 0.03 0.03 0.02 0.02 0.02 0.02 0.02 0.01
0.01 0.01 0.02 0.03 0.05 0.05 0.05 0.06 0.06 0.07 0.07 0.07 0.07 0.06 0.07 0.08 0.08 0.09 0.07 0.05 0.04 0.03 0.04 0.03 0.03 0.03 0.03 0.03 0.02 0.02 0.01 0.01 0.01 0.02 0.02 0.03 0.03 0.02 0.02 0.02 0.02 0.01 0.01
0.01 0.02 0.02 0.02 0.03 0.04 0.04 0.04 0.04 0.05 0.05 0.05 0.05 0.05 0.04 0.05 0.06 0.06 0.06 0.05 0.04 0.03 0.02 0.02 0.02 0.03 0.03 0.03 0.03 0.02 0.01 0.01 0.01 0.01 0.01 0.02 0.02 0.02 0.03 0.03 0.03 0.02 0.01
0.01 0.01 0.01 0.01 0.02 0.02 0.03 0.03 0.03 0.03 0.04 0.04 0.04 0.04 0.03 0.04 0.04 0.05 0.05 0.04 0.04 0.02 0.02 0.02 0.02 0.02 0.02 0.02 0.03 0.03 0.03 0.02 0.02 0.02 0.01 0.01 0.01 0.01 0.02 0.03 0.03 0.03 0.02
MSLP
1013.46 1014.10 1014.76 1015.40 1015.99 1016.50 1016.92 1017.25 1017.52 1017.74 1017.95 1018.18 1018.44 1018.75 1019.09 1019.44 1019.79 1020.11 1020.38 1020.59 1020.73 1020.80 1020.83 1020.81 1020.76 1020.71 1020.66 1020.61 1020.59 1020.57 1020.56 1020.55 1020.52 1020.46 1020.36 1020.21 1020.00 1019.75 1019.46 1019.15 1018.82 1018.51 1018.23
1013.47 1014.15 1014.85 1015.54 1016.19 1016.75 1017.22 1017.59 1017.89 1018.12 1018.34 1018.55 1018.78 1019.05 1019.36 1019.68 1020.01 1020.33 1020.62 1020.86 1021.04 1021.16 1021.22 1021.24 1021.21 1021.16 1021.10 1021.04 1020.98 1020.94 1020.89 1020.84 1020.77 1020.68 1020.53 1020.33 1020.07 1019.75 1019.37 1018.97 1018.56 1018.16 1017.81
1013.43 1014.13 1014.87 1015.61 1016.30 1016.91 1017.44 1017.86 1018.20 1018.47 1018.69 1018.90 1019.11 1019.35 1019.62 1019.91 1020.22 1020.53 1020.83 1021.09 1021.31 1021.48 1021.59 1021.64 1021.65 1021.61 1021.55 1021.48 1021.39 1021.31 1021.22 1021.13 1021.02 1020.88 1020.70 1020.46 1020.15 1019.77 1019.34 1018.87 1018.39 1017.92 1017.51
1013.32 1014.05 1014.82 1015.59 1016.32 1016.99 1017.57 1018.06 1018.45 1018.77 1019.02 1019.24 1019.45 1019.67 1019.90 1020.16 1020.44 1020.73 1021.03 1021.31 1021.56 1021.77 1021.92 1022.02 1022.05 1022.04 1021.98 1021.89 1021.78 1021.65 1021.52 1021.38 1021.23 1021.06 1020.84 1020.57 1020.24 1019.84 1019.38 1018.88 1018.35 1017.84 1017.37
1013.17 1013.92 1014.70 1015.50 1016.26 1016.98 1017.62 1018.17 1018.64 1019.01 1019.32 1019.57 1019.79 1020.00 1020.21 1020.44 1020.69 1020.95 1021.23 1021.51 1021.78 1022.01 1022.20 1022.33 1022.40 1022.40 1022.34 1022.24 1022.10 1021.94 1021.76 1021.58 1021.40 1021.19 1020.96 1020.68 1020.34 1019.95 1019.49 1018.98 1018.44 1017.91 1017.41
1013.00 1013.76 1014.55 1015.35 1016.14 1016.89 1017.59 1018.20 1018.74 1019.19 1019.56 1019.85 1020.10 1020.32 1020.52 1020.72 1020.93 1021.17 1021.42 1021.68 1021.94 1022.19 1022.39 1022.55 1022.63 1022.65 1022.60 1022.49 1022.33 1022.14 1021.93 1021.72 1021.50 1021.27 1021.03 1020.76 1020.44 1020.07 1019.64 1019.15 1018.63 1018.09 1017.57
1012.82 1013.58 1014.37 1015.17 1015.97 1016.74 1017.48 1018.15 1018.75 1019.27 1019.70 1020.06 1020.34 1020.57 1020.77 1020.95 1021.13 1021.33 1021.55 1021.78 1022.03 1022.26 1022.47 1022.64 1022.74 1022.78 1022.74 1022.62 1022.45 1022.25 1022.02 1021.78 1021.54 1021.30 1021.06 1020.80 1020.51 1020.18 1019.78 1019.34 1018.85 1018.33 1017.80
1012.63 1013.39 1014.18 1014.97 1015.76 1016.54 1017.30 1018.01 1018.66 1019.23 1019.73 1020.14 1020.47 1020.72 1020.92 1021.09 1021.25 1021.41 1021.58 1021.78 1022.00 1022.22 1022.42 1022.59 1022.71 1022.76 1022.73 1022.63 1022.47 1022.26 1022.02 1021.77 1021.52 1021.28 1021.04 1020.80 1020.54 1020.23 1019.89 1019.48 1019.03 1018.54 1018.02
1012.44 1013.21 1013.98 1014.76 1015.54 1016.31 1017.06 1017.79 1018.47 1019.08 1019.63 1020.08 1020.44 1020.73 1020.94 1021.11 1021.25 1021.38 1021.52 1021.68 1021.86 1022.06 1022.25 1022.42 1022.55 1022.61 1022.61 1022.53 1022.38 1022.18 1021.95 1021.70 1021.45 1021.21 1020.97 1020.74 1020.49 1020.22 1019.90 1019.53 1019.12 1018.66 1018.16
1012.22 1013.01 1013.78 1014.54 1015.30 1016.05 1016.79 1017.50 1018.19 1018.82 1019.39 1019.88 1020.28 1020.59 1020.83 1021.00 1021.13 1021.25 1021.37 1021.50 1021.66 1021.83 1022.01 1022.17 1022.30 1022.38 1022.40 1022.34 1022.22 1022.04 1021.82 1021.58 1021.33 1021.09 1020.85 1020.61 1020.37 1020.11 1019.81 1019.47 1019.08 1018.65 1018.18
1011.96 1012.78 1013.56 1014.31 1015.04 1015.76 1016.47 1017.17 1017.84 1018.47 1019.05 1019.56 1019.99 1020.34 1020.60 1020.80 1020.94 1021.06 1021.17 1021.29 1021.42 1021.57 1021.73 1021.88 1022.01 1022.10 1022.13 1022.10 1022.00 1021.85 1021.65 1021.42 1021.17 1020.92 1020.67 1020.43 1020.17 1019.91 1019.62 1019.30 1018.94 1018.53 1018.10
1011.65 1012.50 1013.30 1014.05 1014.76 1015.45 1016.12 1016.79 1017.43 1018.05 1018.63 1019.16 1019.62 1019.99 1020.30 1020.53 1020.71 1020.84 1020.96 1021.07 1021.19 1021.32 1021.46 1021.59 1021.71 1021.80 1021.84 1021.82 1021.74 1021.61 1021.42 1021.20 1020.96 1020.71 1020.45 1020.19 1019.93 1019.66 1019.37 1019.06 1018.71 1018.34 1017.93
1011.26 1012.15 1012.98 1013.73 1014.44 1015.10 1015.74 1016.37 1016.99 1017.59 1018.16 1018.70 1019.18 1019.60 1019.95 1020.23 1020.45 1020.62 1020.76 1020.87 1020.98 1021.09 1021.21 1021.32 1021.41 1021.49 1021.52 1021.50 1021.44 1021.32 1021.15 1020.94 1020.71 1020.46 1020.20 1019.93 1019.66 1019.38 1019.09 1018.79 1018.46 1018.12 1017.75
1010.82 1011.75 1012.60 1013.37 1014.07 1014.71 1015.32 1015.92 1016.51 1017.09 1017.66 1018.21 1018.72 1019.19 1019.59 1019.93 1020.20 1020.41 1020.57 1020.69 1020.79 1020.88 1020.96 1021.04 1021.10 1021.14 1021.16 1021.14 1021.08 1020.97 1020.82 1020.64 1020.42 1020.18 1019.93 1019.67 1019.40 1019.12 1018.84 1018.55 1018.24 1017.92 1017.60
1010.35 1011.30 1012.17 1012.94 1013.63 1014.26 1014.86 1015.43 1016.00 1016.56 1017.14 1017.70 1018.25 1018.75 1019.21 1019.60 1019.92 1020.17 1020.36 1020.49 1020.58 1020.64 1020.68 1020.72 1020.74 1020.75 1020.74 1020.71 1020.65 1020.56 1020.44 1020.28 1020.09 1019.88 1019.65 1019.41 1019.16 1018.90 1018.63 1018.36 1018.08 1017.79 1017.49
1009.86 1010.81 1011.68 1012.45 1013.13 1013.75 1014.33 1014.89 1015.45 1016.01 1016.59 1017.17 1017.75 1018.29 1018.79 1019.23 1019.59 1019.87 1020.07 1020.21 1020.28 1020.31 1020.32 1020.31 1020.29 1020.26 1020.23 1020.20 1020.15 1020.08 1020.00 1019.88 1019.74 1019.58 1019.39 1019.18 1018.96 1018.72 1018.48 1018.23 1017.97 1017.71 1017.44
1009.38 1010.30 1011.14 1011.89 1012.57 1013.18 1013.75 1014.30 1014.85 1015.42 1016.01 1016.61 1017.21 1017.78 1018.32 1018.78 1019.17 1019.47 1019.68 1019.80 1019.86 1019.86 1019.82 1019.77 1019.72 1019.67 1019.64 1019.61 1019.58 1019.55 1019.51 1019.45 1019.37 1019.26 1019.13 1018.97 1018.79 1018.58 1018.37 1018.14 1017.90 1017.65 1017.39
1008.90 1009.76 1010.55 1011.28 1011.93 1012.53 1013.10 1013.65 1014.21 1014.79 1015.39 1016.00 1016.62 1017.21 1017.76 1018.24 1018.63 1018.93 1019.13 1019.24 1019.27 1019.24 1019.18 1019.11 1019.04 1018.98 1018.95 1018.95 1018.97 1018.99 1019.01 1019.02 1019.00 1018.95 1018.88 1018.76 1018.62 1018.45 1018.26 1018.04 1017.81 1017.57 1017.30
1008.40 1009.19 1009.93 1010.61 1011.24 1011.82 1012.39 1012.94 1013.51 1014.10 1014.71 1015.34 1015.96 1016.56 1017.11 1017.58 1017.97 1018.25 1018.43 1018.52 1018.53 1018.48 1018.40 1018.32 1018.25 1018.21 1018.22 1018.26 1018.32 1018.41 1018.50 1018.58 1018.63 1018.64 1018.62 1018.55 1018.43 1018.28 1018.10 1017.89 1017.66 1017.40 1017.12
1007.88 1008.58 1009.26 1009.89 1010.49 1011.06 1011.62 1012.19 1012.77 1013.37 1013.98 1014.61 1015.23 1015.82 1016.36 1016.82 1017.18 1017.44 1017.60 1017.66 1017.65 1017.60 1017.52 1017.45 1017.41 1017.41 1017.45 1017.55 1017.69 1017.84 1018.00 1018.14 1018.25 1018.32 1018.33 1018.29 1018.19 1018.05 1017.87 1017.65 1017.41 1017.14 1016.83
1007.33 1007.95 1008.56 1009.14 1009.71 1010.27 1010.83 1011.39 1011.98 1012.58 1013.20 1013.83 1014.44 1015.01 1015.52 1015.96 1016.29 1016.53 1016.66 1016.72 1016.70 1016.65 1016.59 1016.55 1016.55 1016.60 1016.71 1016.87 1017.07 1017.29 1017.51 1017.71 1017.87 1017.96 1018.00 1017.97 1017.87 1017.73 1017.54 1017.31 1017.05 1016.76 1016.44
1006.74 1007.30 1007.85 1008.39 1008.93 1009.47 1010.02 1010.58 1011.16 1011.77 1012.38 1012.99 1013.59 1014.14 1014.62 1015.03 1015.34 1015.56 1015.68 1015.72 1015.72 1015.69 1015.66 1015.66 1015.71 1015.82 1015.99 1016.22 1016.48 1016.76 1017.03 1017.26 1017.45 1017.56 1017.60 1017.57 1017.47 1017.31 1017.11 1016.86 1016.59 1016.30 1015.97
1006.15 1006.66 1007.17 1007.68 1008.18 1008.69 1009.22 1009.77 1010.34 1010.92 1011.52 1012.12 1012.69 1013.21 1013.68 1014.06 1014.35 1014.56 1014.68 1014.74 1014.75 1014.75 1014.76 1014.81 1014.92 1015.08 1015.31 1015.59 1015.90 1016.22 1016.52 1016.78 1016.97 1017.09 1017.13 1017.09 1016.98 1016.81 1016.60 1016.35 1016.08 1015.79 1015.47
1005.59 1006.08 1006.55 1007.02 1007.49 1007.97 1008.46 1008.98 1009.52 1010.07 1010.64 1011.21 1011.75 1012.26 1012.70 1013.07 1013.36 1013.56 1013.70 1013.77 1013.82 1013.86 1013.92 1014.01 1014.17 1014.38 1014.65 1014.97 1015.31 1015.65 1015.97 1016.23 1016.43 1016.55 1016.58 1016.53 1016.42 1016.25 1016.04 1015.80 1015.55 1015.28 1014.99
1005.10 1005.57 1006.02 1006.45 1006.88 1007.31 1007.75 1008.22 1008.71 1009.23 1009.75 1010.29 1010.80 1011.28 1011.71 1012.08 1012.37 1012.59 1012.75 1012.85 1012.94 1013.01 1013.11 1013.25 1013.44 1013.69 1013.99 1014.33 1014.68 1015.03 1015.35 1015.61 1015.80 1015.92 1015.95 1015.91 1015.80 1015.64 1015.45 1015.24 1015.02 1014.78 1014.54
1004.70 1005.16 1005.58 1005.97 1006.34 1006.71 1007.09 1007.50 1007.93 1008.39 1008.87 1009.36 1009.84 1010.31 1010.73 1011.09 1011.40 1011.64 1011.83 1011.97 1012.09 1012.20 1012.34 1012.51 1012.73 1012.99 1013.30 1013.65 1014.00 1014.34 1014.66 1014.91 1015.11 1015.22 1015.27 1015.24 1015.15 1015.02 1014.86 1014.68 1014.50 1014.31 1014.11
Thickness
5702 5700 5698 5696 5695 5693 5692 5690 5689 5687 5685 5683 5682 5680 5679 5677 5676 5674 5675 5674 5672 5671 5670 5669 5668 5668 5669 5669 5669 5667 5666 5664 5661 5663 5664 5663 5660 5658 5656 5655 5655 5654 5655
5696 5694 5693 5692 5690 5689 5688 5686 5685 5683 5682 5680 5678 5676 5675 5674 5672 5671 5670 5669 5668 5667 5667 5666 5665 5665 5663 5663 5663 5663 5662 5660 5658 5655 5657 5657 5654 5653 5651 5650 5651 5652 5650
5691 5689 5688 5686 5685 5684 5683 5681 5680 5679 5677 5675 5673 5672 5671 5670 5669 5668 5666 5665 5664 5664 5663 5662 5662 5661 5659 5660 5658 5659 5659 5658 5656 5653 5653 5652 5651 5649 5647 5647 5647 5645 5646
5686 5684 5682 5680 5680 5679 5677 5676 5675 5674 5672 5671 5669 5668 5667 5666 5665 5664 5662 5661 5660 5660 5659 5658 5658 5657 5656 5655 5655 5654 5654 5653 5652 5651 5650 5649 5647 5646 5643 5643 5642 5642 5642
5680 5678 5676 5675 5674 5673 5672 5670 5670 5669 5668 5666 5665 5663 5662 5661 5660 5659 5658 5657 5656 5655 5654 5654 5654 5653 5651 5650 5652 5651 5650 5649 5649 5648 5646 5645 5644 5640 5640 5639 5638 5637 5637
5674 5673 5671 5670 5668 5667 5666 5665 5664 5663 5662 5661 5659 5658 5657 5657 5654 5651 5650 5651 5651 5650 5650 5649 5649 5648 5646 5644 5643 5642 5641 5642 5643 5642 5642 5640 5637 5637 5635 5634 5633 5632 5631
5669 5668 5666 5664 5663 5661 5661 5659 5658 5656 5656 5655 5654 5653 5652 5650 5646 5644 5642 5643 5645 5645 5645 5644 5646 5647 5644 5644 5640 5637 5636 5634 5633 5635 5636 5635 5634 5633 5630 5629 5628 5627 5627
5664 5662 5661 5659 5658 5656 5655 5653 5652 5651 5650 5649 5649 5649 5647 5645 5641 5638 5636 5637 5639 5640 5640 5640 5640 5640 5640 5638 5637 5637 5636 5634 5631 5629 5630 5630 5630 5628 5626 5624 5623 5622 5622
5658 5656 5655 5654 5652 5651 5649 5648 5647 5646 5646 5645 5645 5644 5642 5640 5636 5633 5629 5633 5635 5636 5636 5636 5635 5635 5632 5629 5630 5631 5631 5631 5629 5627 5625 5624 5622 5620 5619 5618 5618 5619 5620
5653 5652 5650 5648 5647 5645 5644 5643 5642 5642 5642 5642 5641 5640 5638 5637 5632 5629 5625 5630 5631 5632 5632 5632 5629 5629 5626 5623 5625 5626 5626 5626 5626 5624 5621 5619 5619 5617 5614 5613 5615 5615 5616
5648 5646 5644 5643 5641 5640 5638 5638 5637 5637 5637 5637 5636 5636 5635 5633 5629 5626 5622 5625 5627 5627 5629 5629 5628 5623 5619 5618 5618 5620 5620 5619 5620 5619 5619 5619 5618 5617 5615 5613 5611 5610 5610
5642 5640 5638 5637 5636 5635 5633 5632 5632 5631 5631 5631 5632 5631 5632 5630 5627 5624 5620 5618 5618 5621 5623 5624 5623 5616 5613 5612 5612 5613 5612 5611 5615 5615 5615 5615 5615 5615 5613 5611 5608 5606 5604
5635 5633 5632 5631 5630 5630 5628 5627 5628 5628 5628 5629 5629 5628 5628 5628 5625 5620 5616 5614 5612 5613 5617 5615 5612 5609 5607 5608 5608 5607 5606 5609 5612 5612 5612 5612 5612 5610 5608 5606 5604 5601 5599
5629 5628 5627 5626 5626 5625 5625 5626 5626 5625 5624 5624 5624 5624 5624 5623 5621 5617 5614 5611 5607 5607 5608 5608 5605 5604 5604 5605 5606 5606 5607 5609 5609 5609 5609 5608 5607 5605 5604 5603 5600 5599 5598
5623 5623 5622 5622 5622 5621 5621 5621 5621 5621 5620 5617 5618 5618 5618 5617 5615 5610 5609 5608 5607 5606 5602 5603 5604 5605 5606 5607 5608 5609 5608 5607 5606 5605 5604 5603 5602 5601 5600 5599 5596 5596 5595
5618 5618 5619 5619 5619 5618 5618 5617 5614 5613 5611 5609 5608 5609 5612 5610 5606 5603 5600 5598 5596 5595 5595 5600 5601 5603 5605 5607 5608 5608 5607 5606 5604 5603 5602 5601 5599 5598 5596 5595 5594 5593 5592
5614 5614 5614 5614 5615 5615 5615 5614 5613 5609 5606 5605 5604 5603 5602 5602 5600 5597 5594 5592 5590 5589 5593 5598 5600 5601 5602 5605 5607 5607 5607 5605 5602 5600 5599 5598 5597 5596 5594 5593 5592 5591 5590
5609 5608 5608 5609 5610 5611 5611 5610 5610 5609 5609 5609 5604 5600 5598 5597 5595 5593 5590 5589 5592 5590 5596 5598 5599 5600 5601 5602 5604 5605 5605 5603 5600 5598 5597 5596 5595 5594 5593 5592 5591 5588 5587
5604 5605 5604 5605 5606 5606 5606 5606 5606 5606 5606 5607 5606 5602 5596 5594 5592 5590 5588 5593 5598 5597 5598 5599 5599 5600 5601 5601 5602 5603 5602 5601 5599 5597 5596 5594 5594 5593 5592 5591 5590 5584 5583
5599 5597 5596 5599 5600 5601 5601 5601 5601 5601 5601 5602 5602 5601 5598 5596 5597 5594 5592 5595 5597 5598 5598 5599 5599 5600 5600 5601 5601 5601 5600 5599 5598 5596 5595 5594 5593 5592 5591 5589 5588 5586 5584
5594 5593 5589 5592 5595 5596 5596 5596 5596 5596 5597 5597 5598 5597 5592 5596 5597 5597 5597 5597 5597 5597 5598 5598 5599 5599 5599 5599 5600 5600 5599 5598 5597 5596 5594 5593 5592 5591 5589 5588 5587 5585 5584
5588 5589 5588 5588 5589 5589 5590 5591 5591 5592 5593 5593 5593 5593 5588 5592 5595 5596 5597 5597 5597 5596 5596 5596 5597 5598 5598 5597 5597 5597 5596 5595 5595 5593 5592 5591 5589 5588 5588 5587 5586 5584 5582
5583 5584 5583 5584 5584 5582 5583 5586 5587 5588 5589 5589 5590 5590 5590 5590 5592 5593 5593 5594 5594 5594 5594 5594 5594 5595 5595 5595 5595 5595 5594 5593 5592 5591 5590 5588 5588 5587 5586 5584 5583 5581 5580
5578 5578 5578 5578 5578 5579 5580 5581 5582 5583 5585 5586 5586 5586 5587 5587 5588 5589 5590 5591 5591 5591 5591 5592 5592 5592 5591 5591 5592 5592 5591 5589 5588 5588 5587 5586 5585 5585 5584 5583 5581 5580 5577
5573 5573 5573 5573 5573 5575 5576 5577 5578 5579 5580 5581 5582 5583 5584 5584 5585 5586 5587 5587 5587 5588 5588 5588 5588 5588 5587 5587 5587 5587 5584 5582 5582 5582 5583 5583 5583 5582 5581 5580 5578 5576 5574
5568 5568 5569 5569 5569 5570 5571 5572 5573 5574 5575 5576 5578 5579 5580 5581 5582 5582 5583 5583 5584 5584 5584 5585 5584 5584 5583 5583 5582 5580 5578 5577 5577 5576 5578 5579 5579 5578 5578 5577 5575 5573 5571